MyTimes logo

TIMES

Webb Imagery

10/03/2005

YMCA at Boroondara Aquathon Series - Race #10

(1.5km run / 250m swim) x3

(Click on competitor name to view personalised results)

Name
Race #
Category
Team Name
Time
(h:mm:ss)
Avg Speed
km/hr
OAll
Place
Cat
Place
DAVIS Colin#731Adult Male0:27:24 11.5 11
WALPOLE Stuart#752Adult Male0:28:26 11.1 22
BOURIS Gabriel#741Adult Male0:29:02 10.8 33
WAKELING Christian#733Open Team0:29:10 10.8 41
THYNNE Chris#750Open Team0:29:14 10.8 52
CLOHESSY Lydia#739Open Team0:29:42 10.6 63
CLARKE Jacqueline#748Junior Team0:30:54 10.2 71
ATKINS James#743Adult Male0:33:36 9.4 84
WILLIAMS Cassandra#758Adult Female0:35:21 8.9 91
NAYLOR Simon#732Adult Male0:36:44 8.6 105
ATKINS Charles#744Adult Male0:36:49 8.6 116
CATTO-SMITH Tony#749Open Team0:37:38 8.4 124
EMISON Suzy#746Adult Female0:37:48 8.3 132
BECK Lauren#742Junior Female0:38:08 8.3 141
MC LEAY Garry#751Adult Male0:38:58 8.1 157
MUMMERY Glenn#745Adult Male0:39:22 8 168
HARRIS Brett#740Adult Male0:39:54 7.9 179
MOELLER David#738Adult Male0:40:00 7.9 1810
MORONEY Katie#754Adult Female0:40:52 7.7 193
PAINTER Rachel#755Junior Female0:42:03 7.5 202
TAYLOR Jim#747Adult Male0:42:51 7.4 2111
WORSNOP Peter#753Junior Team0:43:27 7.2 222
ARMSTRONG Andrew#759Adult Male0:46:52 6.7 2312
MOELLER Janet#734Adult Female0:47:45 6.6 244
ARMSTRONG David#760Adult Male0:50:04 6.3 2513